Total_Precipitation_Accumulation
0.12 0.21 0.24 0.24 0.22 0.18 0.15 0.12 0.22 0.26 0.37 0.45 0.48 0.61 0.78 0.92 0.92 0.88 0.72 0.63 0.70 0.70 0.76 0.79 0.80 0.87 0.81 0.80 0.85 0.99 1.17 1.29 1.43 1.44 1.42 1.41 1.46 1.52 1.54 1.62 1.62 1.68 1.73 1.75
0.16 0.19 0.24 0.27 0.25 0.19 0.13 0.12 0.16 0.24 0.38 0.50 0.57 0.67 0.74 0.71 0.65 0.59 0.55 0.45 0.43 0.60 0.69 0.65 0.64 0.66 0.61 0.67 0.80 0.94 1.05 1.16 1.36 1.49 1.52 1.51 1.55 1.63 1.68 1.68 1.69 1.71 1.68 1.73
0.25 0.24 0.25 0.34 0.33 0.24 0.15 0.14 0.20 0.32 0.49 0.65 0.55 0.55 0.62 0.63 0.61 0.57 0.55 0.40 0.34 0.41 0.56 0.55 0.56 0.57 0.66 0.79 0.92 1.03 1.17 1.31 1.50 1.60 1.68 1.70 1.65 1.75 1.72 1.72 1.75 1.72 1.66 1.65
0.31 0.42 0.51 0.37 0.30 0.29 0.29 0.26 0.28 0.40 0.42 0.56 0.56 0.61 0.73 0.73 0.71 0.55 0.49 0.39 0.35 0.36 0.41 0.48 0.55 0.62 0.76 1.02 1.22 1.26 1.40 1.59 1.70 1.81 1.78 1.76 1.75 1.77 1.84 1.91 1.92 1.89 1.82 1.74
0.47 0.60 0.52 0.44 0.32 0.36 0.41 0.54 0.56 0.64 0.61 0.56 0.56 0.66 0.75 0.65 0.57 0.57 0.47 0.43 0.42 0.41 0.48 0.57 0.62 0.66 0.87 1.09 1.31 1.44 1.50 1.63 1.80 1.90 1.95 1.98 2.00 1.95 1.99 2.06 2.01 1.94 1.90 1.93
0.59 0.74 0.73 0.61 0.48 0.47 0.58 1.02 0.86 0.79 0.81 0.69 0.64 0.76 0.83 0.79 0.72 0.66 0.58 0.54 0.53 0.55 0.63 0.77 0.87 0.91 1.05 1.16 1.29 1.45 1.53 1.65 1.83 2.04 2.11 2.15 2.28 2.34 2.27 2.22 2.10 2.12 2.11 2.09
0.74 0.80 0.87 0.74 0.68 0.71 1.11 1.38 1.07 0.91 0.86 0.83 0.92 0.94 0.90 0.80 0.80 0.74 0.63 0.65 0.63 0.65 0.77 0.96 1.10 1.16 1.25 1.38 1.49 1.50 1.57 1.70 1.89 2.06 2.14 2.21 2.35 2.44 2.42 2.39 2.37 2.31 2.23 2.25
0.89 1.07 1.24 0.87 0.83 1.24 1.49 1.25 1.24 1.20 1.12 1.01 0.98 0.94 0.90 0.81 0.78 0.73 0.71 0.75 0.75 0.80 0.94 1.16 1.33 1.29 1.33 1.39 1.44 1.47 1.48 1.59 1.71 1.87 1.92 2.01 2.24 2.34 2.41 2.44 2.40 2.31 2.24 2.12
1.18 1.30 1.20 1.01 1.09 1.26 1.39 1.55 1.46 1.34 1.31 1.14 1.11 1.02 0.92 0.84 0.80 0.77 0.73 0.79 0.82 0.88 1.09 1.33 1.47 1.48 1.53 1.42 1.47 1.49 1.52 1.64 1.76 1.85 1.92 2.03 2.13 2.14 2.20 2.28 2.25 2.16 2.14 2.07
1.35 1.40 1.32 1.18 1.06 0.99 1.12 1.23 1.22 1.21 1.20 1.15 1.12 1.06 0.97 0.86 0.78 0.78 0.78 0.74 0.78 0.87 0.96 1.06 1.25 1.41 1.49 1.53 1.57 1.57 1.60 1.63 1.70 1.81 1.85 1.88 1.99 2.08 2.17 2.28 2.36 2.27 2.17 2.07
1.61 1.51 1.39 1.40 1.29 1.16 1.23 1.30 1.21 1.15 1.12 1.13 1.10 1.05 0.91 0.87 0.84 0.81 0.79 0.74 0.77 0.86 0.88 0.92 1.01 1.12 1.20 1.28 1.40 1.45 1.49 1.54 1.57 1.59 1.68 1.76 1.80 1.87 1.89 1.98 2.00 1.99 1.95 1.92
1.92 1.67 1.51 1.48 1.37 1.26 1.31 1.28 1.35 1.41 1.37 1.16 1.05 1.13 1.06 0.92 0.82 0.80 0.80 0.78 0.81 0.84 0.83 0.86 0.91 1.06 1.16 1.25 1.38 1.49 1.56 1.57 1.50 1.46 1.51 1.55 1.58 1.56 1.56 1.50 1.50 1.47 1.46 1.46
1.56 1.40 1.36 1.35 1.32 1.24 1.25 1.18 1.17 1.25 1.28 1.18 1.11 1.08 1.13 1.04 0.95 0.88 0.82 0.76 0.80 0.86 0.84 0.86 0.88 0.99 1.07 1.15 1.26 1.36 1.44 1.47 1.44 1.41 1.47 1.46 1.47 1.49 1.53 1.47 1.36 1.29 1.26 1.23
1.36 1.30 1.29 1.25 1.20 1.19 1.19 1.15 1.03 1.02 1.10 1.11 1.12 1.15 1.23 1.17 1.07 1.01 0.96 0.88 0.80 0.80 0.79 0.81 0.89 0.92 1.00 1.08 1.14 1.19 1.25 1.31 1.37 1.45 1.49 1.54 1.57 1.60 1.67 1.73 1.67 1.50 1.34 1.24
1.44 1.33 1.22 1.07 1.06 1.10 1.08 1.04 0.96 0.91 1.05 1.17 1.13 1.14 1.19 1.07 1.01 0.96 0.91 0.87 0.84 0.82 0.85 0.86 0.92 0.94 1.00 1.10 1.17 1.17 1.17 1.19 1.20 1.27 1.34 1.40 1.41 1.45 1.52 1.61 1.64 1.54 1.39 1.27
1.50 1.36 1.18 1.03 1.06 1.14 1.14 1.10 1.01 0.89 0.86 0.99 1.08 1.04 1.07 1.00 0.90 0.90 0.91 0.92 0.98 0.99 0.99 0.98 1.03 0.99 1.04 1.12 1.17 1.19 1.14 1.15 1.13 1.12 1.13 1.14 1.16 1.22 1.29 1.38 1.43 1.36 1.26 1.15
1.51 1.43 1.27 1.10 1.04 1.03 1.05 1.07 1.01 0.91 0.79 0.82 0.94 0.99 1.02 0.97 0.88 0.86 0.89 0.92 0.96 0.98 1.00 1.05 1.10 1.10 1.16 1.20 1.20 1.19 1.12 1.09 1.07 1.04 1.02 1.02 1.04 1.10 1.14 1.17 1.21 1.15 1.06 0.93
1.36 1.28 1.16 1.08 0.99 0.97 0.98 0.93 0.90 0.92 0.88 0.84 0.86 0.90 0.92 0.99 1.02 0.98 0.92 0.93 0.93 0.90 0.87 0.87 0.94 1.01 1.12 1.24 1.26 1.22 1.08 0.98 0.91 0.90 0.94 0.98 0.99 1.04 1.09 1.09 1.05 0.99 0.91 0.76
1.21 1.16 1.08 1.03 1.01 0.98 0.94 0.88 0.85 0.88 0.84 0.79 0.84 0.90 0.93 0.97 1.07 1.03 0.96 0.97 1.03 1.06 0.94 0.84 0.91 0.89 0.95 1.13 1.26 1.26 1.10 0.97 0.89 0.84 0.84 0.86 0.88 0.94 0.98 0.95 0.87 0.80 0.74 0.70
1.20 1.23 1.23 1.19 1.13 1.08 0.99 0.89 0.85 0.86 0.84 0.80 0.82 0.85 0.91 0.94 1.03 1.07 1.05 0.96 0.96 1.07 1.06 0.99 0.88 0.80 0.81 0.96 1.19 1.15 1.09 1.00 0.90 0.80 0.81 0.85 0.88 0.91 0.91 0.88 0.81 0.74 0.71 0.68
1.24 1.30 1.28 1.23 1.17 1.06 0.95 0.87 0.87 0.88 0.85 0.87 0.89 0.90 0.94 0.95 0.96 1.07 1.17 1.04 0.89 0.97 1.05 1.02 0.88 0.77 0.75 0.87 1.08 1.10 1.04 0.98 0.88 0.77 0.73 0.76 0.79 0.84 0.87 0.86 0.80 0.72 0.70 0.70
1.38 1.44 1.32 1.16 1.10 1.00 0.89 0.83 0.79 0.78 0.78 0.86 0.93 0.96 1.10 1.15 1.09 1.08 1.05 1.01 0.98 1.07 1.05 0.98 0.88 0.76 0.69 0.73 0.82 0.93 0.91 0.85 0.78 0.70 0.63 0.63 0.69 0.76 0.77 0.76 0.73 0.69 0.68 0.69
1.38 1.33 1.22 1.04 0.99 0.87 0.73 0.71 0.70 0.69 0.71 0.80 0.94 1.10 1.33 1.35 1.28 1.33 1.16 0.93 0.91 1.04 1.02 0.94 0.90 0.77 0.66 0.62 0.68 0.76 0.78 0.78 0.74 0.66 0.56 0.56 0.59 0.64 0.67 0.63 0.64 0.63 0.59 0.55
1.18 1.08 0.97 0.86 0.88 0.84 0.79 0.76 0.74 0.74 0.77 0.82 0.88 1.05 1.33 1.48 1.30 1.08 1.02 0.99 0.95 0.93 0.89 0.89 0.87 0.77 0.69 0.61 0.62 0.69 0.74 0.76 0.72 0.65 0.57 0.58 0.58 0.59 0.62 0.60 0.57 0.54 0.48 0.48
1.15 0.97 0.83 0.80 0.92 1.02 0.98 0.93 0.92 0.94 0.96 0.97 0.91 0.96 1.11 1.35 1.37 1.07 0.86 0.78 0.82 0.83 0.81 0.86 0.86 0.84 0.70 0.60 0.61 0.70 0.76 0.79 0.79 0.74 0.68 0.68 0.65 0.66 0.66 0.62 0.59 0.56 0.55 0.56
1.11 0.99 0.88 0.84 0.90 1.06 1.13 1.15 1.22 1.23 1.29 1.34 1.26 1.14 1.16 1.22 1.15 1.00 0.85 0.73 0.73 0.79 0.76 0.80 0.82 0.82 0.72 0.64 0.65 0.71 0.76 0.81 0.82 0.79 0.77 0.75 0.70 0.68 0.68 0.65 0.64 0.61 0.59 0.56
1.12 1.03 0.97 0.92 0.92 1.02 1.16 1.28 1.39 1.45 1.56 1.72 1.70 1.41 1.29 1.30 1.21 1.09 0.94 0.84 0.84 0.84 0.81 0.75 0.70 0.71 0.74 0.74 0.71 0.69 0.74 0.81 0.80 0.80 0.80 0.74 0.69 0.66 0.64 0.58 0.55 0.54 0.50 0.46